Starlink 6118

operational
NORAD ID: 57106 Int'l Des: 2023-090 Owner: SPXS Country: US Constellation: starlink
LEOCIRCULAR

Starlink 6118について

説明を読み込み中...

リアルタイム位置

3D地球を読み込み中...

次回通過

高度履歴

Altitude vs Time

uPlot chart will show altitude changes over time

軌道要素

1 57106U 23090F 25302.88032750 .00000259 00000-0 34231-4 0 9991
2 57106 43.0040 265.6528 0001084 267.3494 92.7224 15.02538033130734
Epoch: Oct 29, 2025 • Age: 25 hours

現在のステータス

高度 558.7 km
速度 7.59 km/s
衛星直下点 18.61°N, 53.57°E
打ち上げ日 Jun 23, 2023
運用期間 2.3 years
タイプ internet

技術仕様

分類 Payload
質量 305.00 kg
乾燥質量 290.00 kg
総質量 305.00 kg
長さ 0.20 m
直径 2.80 m
スパン 9.00 m
形状 Box + pan
製造者 SPXS
バスタイプ Starlink
フェーズステータス In Orbit
所有者/国 SPXS/US

大規模コンステレーション

Loading constellations...